SCP
0 0 0 0 0 0 0 0 0 0 0 0 0 0 0 0 0 0 0 0 0 0 0 0 0 0 0 0 0 0 0 0 0 0 0 0 0 0 0 0 0 0 0
0 0 1 1 1 0 0 0 0 0 0 0 0 0 0 0 0 0 0 0 0 0 0 0 0 0 0 0 0 0 0 0 0 0 0 0 0 0 0 0 0 0 0
0 1 1 1 1 1 0 0 0 0 0 0 0 0 0 0 0 0 0 0 0 0 0 0 0 0 0 0 0 0 0 0 0 0 0 0 0 0 0 0 0 0 0
1 1 1 1 1 1 1 1 1 0 0 0 0 0 0 0 0 0 0 0 0 0 0 0 0 0 0 0 0 0 0 0 0 0 0 0 0 0 0 0 0 0 0
1 1 1 1 1 1 1 1 1 1 1 0 0 0 0 0 0 0 0 0 0 0 0 0 0 0 0 0 0 0 0 0 0 0 0 0 0 0 0 0 0 0 0
1 1 1 1 1 1 1 1 1 1 1 1 0 0 0 0 0 0 0 0 0 0 0 0 0 0 0 0 0 0 0 0 0 0 0 0 0 0 0 0 0 0 0
1 1 1 1 1 1 1 1 1 1 1 1 0 0 0 0 0 0 0 0 0 0 0 0 0 0 0 0 0 0 0 0 0 0 0 0 0 0 0 0 0 0 0
1 1 1 1 1 1 1 1 1 1 1 1 1 0 0 0 0 0 0 0 0 0 0 0 0 0 0 0 0 0 0 0 0 0 0 0 0 0 0 0 0 0 0
0 1 1 1 1 1 1 1 1 1 1 1 1 1 0 0 0 0 0 0 0 0 0 0 0 0 0 0 0 0 0 0 0 0 0 0 0 0 0 0 0 0 0
1 1 1 1 1 1 1 1 1 1 1 1 1 1 1 1 1 0 0 0 0 0 0 0 0 0 0 0 0 0 0 0 0 0 0 0 0 0 0 0 0 0 0
1 1 1 1 1 1 1 1 1 1 1 1 1 1 1 1 1 1 1 1 0 0 0 0 0 0 0 0 0 0 0 0 0 0 0 0 0 0 0 0 0 0 0
1 1 1 1 1 1 1 1 1 1 1 1 1 1 1 1 1 1 1 1 1 0 0 0 1 1 1 1 1 0 0 0 0 0 0 0 0 0 0 0 0 0 0
1 1 1 1 1 1 1 1 1 1 1 2 2 1 1 1 1 1 1 1 1 1 1 1 1 1 1 1 1 0 0 0 0 0 0 0 0 0 0 0 0 0 0
1 1 1 1 1 1 1 1 1 1 1 2 1 1 1 1 1 1 1 1 1 1 1 1 1 1 1 1 1 0 0 0 0 0 0 0 0 0 0 0 0 0 0
1 1 1 1 1 1 1 1 1 1 1 1 1 1 1 1 1 1 1 1 1 1 1 1 1 1 1 1 0 0 0 0 0 0 0 0 0 0 0 0 0 0 0
1 1 1 1 1 1 1 1 1 1 1 1 1 1 1 1 1 1 1 1 1 1 1 1 1 1 1 0 0 0 0 0 0 0 0 0 0 0 0 0 0 0 0
2 2 1 1 1 1 1 1 1 1 1 1 1 1 1 1 1 1 1 1 1 1 1 1 1 1 1 0 0 0 0 0 0 0 0 0 0 0 0 0 0 0 0
2 1 1 1 1 1 1 1 1 1 1 1 1 1 1 2 1 1 1 1 1 1 1 1 1 1 1 0 0 0 0 0 0 0 0 0 0 0 0 0 0 0 0
1 1 1 1 1 1 1 1 1 1 2 2 2 2 2 2 1 1 1 1 1 1 1 1 1 1 0 0 0 0 0 1 0 0 0 0 0 0 0 0 0 0 0
1 1 1 1 1 1 1 1 1 2 2 2 2 2 2 2 2 1 1 1 1 1 1 1 1 1 0 0 0 0 0 0 0 0 0 0 0 0 0 0 0 0 0
1 1 1 1 1 1 1 1 1 2 2 2 2 2 2 2 1 1 1 1 1 0 0 0 0 0 0 0 0 0 0 0 0 0 0 0 0 0 0 0 0 0 0
1 1 1 1 1 1 1 1 1 1 2 2 2 2 2 1 1 1 1 1 0 0 0 0 0 0 0 0 0 0 0 0 0 0 0 0 0 0 0 0 0 0 0
1 1 1 1 1 1 1 1 1 1 2 2 2 1 1 1 1 1 1 0 0 0 0 0 0 0 0 0 0 0 0 0 0 0 0 0 0 0 0 0 0 0 0
1 1 1 1 1 1 1 1 1 1 2 1 1 1 1 1 1 1 0 0 0 0 0 0 0 0 0 0 0 0 0 0 0 0 0 0 0 0 0 0 0 0 0
0 1 1 1 1 1 1 1 1 1 1 1 1 1 1 1 0 0 0 0 0 0 0 0 0 0 0 0 0 0 0 0 0 0 0 0 0 0 0 0 0 0 0
0 0 0 1 1 1 1 1 1 1 1 1 1 1 1 0 0 0 0 0 0 0 0 0 0 0 0 0 0 0 0 0 0 0 0 0 0 0 0 0 0 0 0
Wind_Speed
10 11 12 13 11 10 9 8 8 7 5 3 3 3 3 3 3 4 6 6 6 6 5 4 4 4 4 4 4 3 3 2 2 1 1 2 2 2 3 3 3 5 6
9 11 11 12 12 12 11 9 9 8 7 5 4 3 3 3 3 3 4 5 6 6 6 5 4 4 3 3 4 3 2 2 2 3 1 1 3 3 2 2 3 4 3
14 13 13 12 12 12 12 11 10 9 8 6 3 3 2 1 1 2 3 4 6 6 5 6 5 5 4 4 4 4 4 3 2 2 3 3 3 2 3 2 2 2 2
12 11 12 12 13 13 12 10 10 9 7 7 6 6 5 4 4 3 3 4 5 5 5 6 6 5 4 4 4 4 3 4 2 2 2 3 3 2 2 3 2 2 2
12 12 12 13 12 11 11 10 9 8 8 7 8 6 5 4 2 3 3 3 3 4 5 5 5 5 4 5 4 4 4 3 3 3 2 2 1 2 2 2 2 2 2
11 11 10 9 9 10 10 10 10 9 8 8 7 7 7 6 5 4 4 3 2 3 4 5 5 5 4 5 4 4 4 4 3 3 3 2 2 3 3 3 2 2 2
9 9 9 9 9 11 11 10 11 10 9 8 8 8 7 7 7 6 6 5 3 3 4 4 4 4 4 5 4 4 4 4 4 4 3 3 3 3 3 2 2 2 2
7 9 10 11 11 11 11 11 11 11 10 10 9 7 7 5 5 5 5 5 5 4 5 5 5 5 5 5 4 4 4 4 4 4 3 2 3 3 3 3 3 1 1
8 8 8 9 9 11 12 13 12 10 10 10 9 7 7 6 5 5 5 4 4 4 5 5 5 5 5 5 4 3 4 4 4 4 4 3 2 2 3 3 3 4 2
6 7 6 8 8 8 9 9 10 10 9 9 9 8 6 6 5 4 5 5 5 5 5 5 5 5 5 4 4 3 4 4 4 3 3 3 3 2 2 2 2 3 4
6 6 5 6 7 7 7 9 9 8 7 8 8 7 7 6 5 4 5 5 4 5 5 6 6 6 5 5 4 4 4 4 4 3 4 4 3 3 2 2 2 2 3
5 4 5 5 5 6 6 8 9 9 8 8 7 7 6 6 6 6 5 5 5 5 5 5 5 5 5 5 5 6 5 5 5 5 4 4 3 4 3 2 3 3 3
5 4 3 3 4 4 5 5 7 7 7 7 7 7 6 6 7 6 5 5 4 4 4 4 5 5 5 5 5 5 5 6 6 6 5 5 4 4 3 3 3 3 3
6 5 4 3 3 4 4 4 4 5 7 7 6 6 6 6 6 5 5 5 4 4 4 3 4 5 4 4 5 5 5 5 5 5 5 5 6 6 5 4 4 3 2
6 6 4 3 4 4 4 4 3 4 5 5 6 6 5 5 5 5 5 4 4 4 3 3 3 2 3 4 4 4 4 4 4 4 4 5 6 6 5 4 4 4 3
6 5 4 4 4 4 4 4 3 3 4 5 5 5 5 5 5 5 5 4 4 3 3 2 3 3 3 3 5 5 4 4 4 4 3 4 4 5 5 5 6 6 5
5 5 4 4 3 3 4 4 3 2 3 4 4 4 5 5 5 5 4 4 4 3 3 2 2 3 4 4 5 6 4 3 4 4 3 3 2 2 2 3 4 4 6
6 5 4 3 3 4 3 3 3 3 4 4 4 4 4 4 4 4 4 4 3 3 3 3 3 3 3 4 5 5 4 3 3 4 4 4 2 2 3 3 2 3 3
5 4 4 4 3 4 4 4 3 3 4 4 3 3 4 4 4 4 4 3 3 2 3 3 2 3 3 3 4 5 3 3 3 3 3 4 3 3 4 3 2 2 3
4 4 4 4 4 3 4 4 3 3 3 3 3 3 3 4 4 4 3 2 2 3 2 2 2 3 2 3 4 5 3 3 2 2 2 3 3 3 4 4 3 3 4
4 5 4 3 3 4 5 4 3 2 2 3 3 3 3 3 3 3 3 2 2 2 1 1 1 2 3 3 4 5 3 3 2 2 2 2 3 3 4 4 4 5 4
4 4 4 3 2 3 5 4 3 2 2 2 2 2 2 2 3 3 2 2 2 2 1 1 0 1 1 1 2 4 5 3 3 2 2 2 3 3 3 3 4 4 3
3 3 4 3 2 2 4 4 2 2 3 3 2 2 1 1 2 2 2 1 1 1 1 1 1 1 1 1 1 1 2 3 2 1 2 1 2 2 2 3 4 3 2
2 2 4 3 2 1 2 3 3 3 3 4 3 2 2 1 1 1 1 2 1 2 2 2 2 2 1 0 0 0 1 1 1 0 1 1 2 1 2 2 2 2 2
1 2 3 3 2 2 1 2 3 3 3 3 2 1 1 1 1 1 0 1 1 2 3 3 2 2 2 2 2 2 1 1 2 1 0 1 1 1 1 1 1 2 2
1 2 2 2 1 2 2 2 2 3 3 2 2 1 1 1 1 1 1 3 1 2 1 1 2 1 2 1 1 2 2 2 3 2 1 1 2 2 2 3 2 2 2
Wind_Direction
185 172 169 168 164 164 164 166 165 170 163 156 158 159 170 173 174 184 181 176 172 169 169 176 176 176 180 187 180 171 171 194 170 108 335 324 285 248 230 216 212 216 215
177 176 171 170 171 172 173 170 172 174 173 174 169 167 163 172 180 183 179 179 174 171 178 178 181 179 174 180 180 170 166 197 171 151 126 339 330 313 261 233 218 223 216
179 179 176 175 174 178 179 178 178 176 177 171 152 144 117 116 154 173 185 187 180 182 182 182 180 179 175 183 190 181 172 186 202 172 156 166 226 283 306 272 243 230 219
176 179 179 177 181 184 181 178 175 174 175 168 163 162 169 182 194 185 186 188 183 181 184 180 179 180 179 185 195 185 175 170 192 211 203 187 174 175 287 308 281 252 229
177 181 183 184 183 181 179 175 170 173 174 170 170 172 178 184 177 170 175 184 188 186 187 183 181 185 188 191 195 182 181 180 182 192 196 199 195 181 181 256 290 299 264
180 185 184 177 175 176 177 175 172 177 177 174 174 177 178 178 171 177 181 185 187 191 190 184 185 191 189 191 194 189 188 189 186 191 190 183 185 200 191 219 246 263 275
177 182 181 178 179 178 177 178 179 182 182 181 185 186 183 181 184 185 186 184 187 195 203 193 190 192 193 192 188 187 193 191 188 196 203 203 210 190 174 180 218 247 275
172 180 181 179 179 178 176 177 185 188 186 187 192 193 187 186 190 190 186 189 194 196 194 193 193 193 192 193 186 189 195 193 199 208 204 210 224 204 188 181 177 218 283
165 173 173 174 178 184 184 183 185 186 189 190 188 193 194 191 190 189 186 189 192 192 189 193 194 196 196 195 187 197 203 196 204 212 208 213 226 221 208 192 177 175 214
162 160 159 168 178 187 186 180 181 188 188 187 187 190 192 191 186 182 190 190 193 194 186 194 194 194 195 197 194 202 206 200 212 210 208 217 218 220 211 203 199 186 189
158 158 162 173 167 167 175 181 183 183 186 188 185 185 182 182 181 186 199 198 194 192 197 200 197 197 198 195 192 205 200 205 219 222 215 226 218 214 220 208 197 202 191
134 139 154 158 155 166 183 194 188 185 187 189 185 188 181 177 188 199 202 201 201 201 202 199 192 195 198 198 197 204 205 206 216 223 222 233 225 219 223 211 217 218 207
121 109 124 140 154 163 178 183 185 185 182 184 185 187 187 189 194 198 197 196 197 203 204 198 197 202 204 201 205 206 207 208 213 213 215 221 210 218 219 217 223 224 223
135 128 131 138 147 144 146 155 158 173 177 179 182 188 189 190 189 190 191 191 187 191 202 204 206 209 208 203 209 211 212 213 215 214 213 212 209 214 214 219 223 219 211
133 133 136 143 139 128 127 136 143 158 169 173 180 186 182 177 176 180 191 188 185 189 191 197 206 209 210 216 212 218 217 212 218 218 216 218 212 208 209 215 213 207 205
140 135 127 124 131 138 142 135 144 158 156 166 177 172 172 176 181 189 191 185 191 184 170 183 200 206 222 219 210 209 213 204 205 215 226 227 219 217 216 219 213 202 200
139 141 143 137 140 141 138 143 151 143 147 159 162 162 167 173 180 186 187 190 192 176 173 194 204 220 227 210 202 208 202 202 205 211 217 221 222 207 224 226 226 229 223
142 146 143 140 137 125 117 130 129 139 145 143 148 155 154 164 174 178 192 193 177 172 197 210 230 232 229 206 198 200 199 207 218 213 204 200 206 205 191 198 218 242 246
143 139 138 139 124 114 111 101 115 129 131 138 155 160 157 162 168 172 179 178 167 189 202 181 192 214 234 205 197 197 194 209 226 223 208 194 201 208 180 174 200 247 269
119 119 116 110 113 120 113 110 122 127 144 159 162 152 154 162 167 170 167 166 161 181 185 172 183 197 226 224 209 199 189 201 220 225 207 192 190 195 178 184 197 230 255
121 118 116 123 141 144 128 128 120 145 178 155 136 137 149 159 161 156 153 156 164 170 184 188 207 210 228 237 212 198 193 197 203 218 232 230 201 201 203 202 211 230 238
112 122 131 139 139 138 133 135 145 177 148 127 128 131 141 154 144 141 151 163 166 167 179 184 257 287 276 273 212 195 201 190 191 220 235 247 234 230 231 226 231 241 236
132 141 139 128 116 130 131 137 167 152 130 123 127 130 120 125 146 155 158 165 167 170 182 187 219 266 317 358 27 149 179 175 185 213 214 239 249 252 245 237 239 231 209
127 122 120 123 127 130 132 155 161 149 138 140 145 141 126 107 86 117 152 169 179 180 190 197 218 237 251 299 355 25 115 120 151 201 278 286 272 263 262 270 242 219 209
39 92 123 137 162 163 158 169 159 148 141 145 144 143 144 146 110 59 23 216 230 212 202 209 203 198 234 242 209 180 177 175 181 146 19 343 325 301 294 282 255 233 221
80 95 116 142 171 174 188 201 182 158 143 137 142 148 143 140 140 123 30 20 10 9 33 194 193 233 226 222 184 191 199 187 165 141 187 245 250 247 246 248 252 241 235